Regional Weather Roundup
Issued by NWS Goodland, KS

Home | Current Version | Previous Version | Graphics & Text | Print | Product List | Glossary On
Versions: 1 2 3 4 5 6 7 8 9 10 11 12 13 14 15 16 17 18 19 20 21 22 23 24 25 26 27 28 29 30 31 32 33 34 35 36 37 38 39 40 41 42 43 44 45 46 47 48 49 50
000
ASUS43 KGLD 202208
RWRGLD

GOODLAND FORECAST AREA HOURLY WEATHER ROUNDUP
NATIONAL WEATHER SERVICE GOODLAND KS
400 PM MDT FRI APR 20 2018

...OFFICIAL OBSERVATIONS...

CITY           SKY/WX    TMP DP  RH WIND       PRES   REMARKS
GOODLAND KS    CLOUDY    43  38  82 SE21G29   30.09R
HILL CITY KS   CLOUDY    50  34  54 NE13      30.15F
IMPERIAL NEB   LGT RAIN  39  38  96 E15       30.16F
MCCOOK NEB     LGT RAIN  43  40  89 E9        30.19S FOG
AKRON CO       MIX PCPN  36  35  96 SE26G38   30.02F
BURLINGTON CO  CLOUDY    40  38  93 SE21      30.09R
LIMON CO       MIX PCPN  35  34  96 SE25G35   30.00R
$$

...UNOFFICIAL OBSERVATIONS...

CITY           SKY/WX    TMP DP  RH WIND       PRES   REMARKS
COLBY KS       LGT RAIN  43  41  93 E12       30.16F
NORTON KS      CLOUDY    48  36  61 NE7       30.18
SHARON SPRINGS   N/A     42  38  86 E8          N/A
KIT CARSON CO    N/A     38  34  87 CALM        N/A
YUMA CO        LGT RAIN  36  34  93 SE22      30.08R
$$




USA.gov is the U.S. government's official web portal to all federal, state and local government web resources and services.